FW3613 Weather Reports


Display with metric or nautical units.
time (UTC)temp
F
wind
direction
speed
MPH
gust
MPH
rain 1hr
in
rain 24hr
in
rain mn
in
humidity
%
barometer
mb
20260905195037 71 125 0.0 2.0 0.00 0.11 0.02 51 1015.3
20260905194537 71 70 0.0 3.0 0.00 0.11 0.02 53 1015.4
20260905194036 71 146 1.0 3.0 0.00 0.11 0.02 54 1015.4
20260905193535 70 129 1.0 3.0 0.00 0.11 0.02 56 1015.4
20260905193034 69 313 1.0 4.0 0.00 0.11 0.02 55 1015.5
20260905192533 69 309 2.0 4.0 0.00 0.11 0.02 54 1015.6
20260905192033 70 309 1.0 5.0 0.00 0.11 0.02 56 1015.6
20260905191531 69 150 1.0 5.0 0.00 0.11 0.02 57 1015.6
20260905191030 69 138 0.0 3.0 0.00 0.11 0.02 60 1015.7
20260905190532 68 130 0.0 3.0 0.00 0.11 0.02 61 1015.8
20260905190032 67 321 0.0 3.0 0.00 0.11 0.02 61 1015.8
20260905185527 67 353 0.0 3.0 0.00 0.12 0.02 63 1015.9
20260905185025 66 305 0.0 4.0 0.00 0.12 0.02 63 1015.9
20260905184526 66 315 1.0 3.0 0.00 0.12 0.02 63 1016.0
20260905184025 66 306 0.0 4.0 0.00 0.12 0.02 64 1016.1
20260905183524 66 323 0.0 2.0 0.00 0.12 0.02 64 1016.1
20260905183024 66 128 1.0 2.0 0.00 0.12 0.02 65 1016.1
20260905182523 65 141 0.0 2.0 0.00 0.12 0.02 67 1016.2
20260905182020 64 138 0.0 2.0 0.00 0.12 0.02 68 1016.3
20260905181519 64 136 0.0 2.0 0.00 0.12 0.02 68 1016.3
20260905181019 64 323 0.0 2.0 0.00 0.12 0.02 68 1016.4
20260905180517 63 314 0.0 4.0 0.00 0.12 0.02 69 1016.5
20260905180015 62 316 0.0 4.0 0.00 0.12 0.02 69 1016.5
20260905175514 62 352 0.0 3.0 0.00 0.12 0.02 70 1016.6
20260905175015 62 322 1.0 4.0 0.00 0.12 0.02 70 1016.6
20260905174516 61 315 1.0 4.0 0.00 0.12 0.02 70 1016.6
20260905174011 61 316 0.0 4.0 0.00 0.12 0.02 71 1016.6
20260905173510 61 314 1.0 4.0 0.00 0.12 0.02 71 1016.6
20260905173023 60 321 0.0 3.0 0.00 0.12 0.02 72 1016.6
20260905172508 60 318 1.0 3.0 0.00 0.12 0.02 73 1016.6
20260905172007 60 318 0.0 3.0 0.00 0.12 0.02 73 1016.6
20260905171509 59 326 0.0 3.0 0.00 0.12 0.02 74 1016.6
20260905171004 59 1 0.0 3.0 0.00 0.12 0.02 75 1016.6
20260905170504 59 333 1.0 3.0 0.00 0.12 0.02 75 1016.6
20260905170003 59 143 0.0 2.0 0.00 0.12 0.02 77 1016.6
20260905165503 58 296 0.0 2.0 0.00 0.12 0.02 77 1016.6
20260905165104 58 297 0.0 2.0 0.00 0.12 0.02 77 1016.7
20260905164600 58 340 0.0 3.0 0.00 0.12 0.02 79 1016.7
20260905164059 57 330 0.0 3.0 0.00 0.12 0.02 78 1016.6
20260905163600 57 138 0.0 2.0 0.00 0.12 0.02 80 1016.6
20260905163101 57 317 0.0 2.0 0.00 0.12 0.02 80 1016.6
20260905162556 57 318 0.0 1.0 0.00 0.12 0.02 81 1016.6
20260905162056 56 346 0.0 1.0 0.00 0.12 0.02 82 1016.6
20260905161554 56 346 0.0 2.0 0.00 0.12 0.02 83 1016.6
20260905161052 56 146 0.0 2.0 0.00 0.12 0.02 85 1016.6
20260905160551 55 157 0.0 1.0 0.00 0.12 0.02 85 1016.5
20260905160050 55 325 0.0 0.0 0.00 0.12 0.02 86 1016.6
20260905155549 55 322 0.0 0.0 0.00 0.12 0.02 89 1016.6
20260905155047 54 321 0.0 0.0 0.00 0.12 0.02 89 1016.6
20260905154546 54 320 0.0 0.0 0.00 0.12 0.02 90 1016.6
20260905154045 53 321 0.0 1.0 0.00 0.12 0.02 90 1016.5
20260905153543 53 321 0.0 1.0 0.00 0.12 0.02 91 1016.6
20260905153043 53 321 0.0 1.0 0.00 0.12 0.02 92 1016.5
20260905152542 52 320 0.0 1.0 0.00 0.12 0.02 93 1016.5
20260905152042 52 321 0.0 0.0 0.00 0.12 0.02 94 1016.5
20260905151543 51 320 0.0 0.0 0.00 0.12 0.02 94 1016.5
20260905151042 51 320 0.0 0.0 0.00 0.12 0.02 95 1016.6
20260905150541 51 321 0.0 0.0 0.00 0.12 0.02 95 1016.7
20260905150041 50 320 0.0 0.0 0.00 0.12 0.02 95 1016.6
20260905145541 50 320 0.0 0.0 0.00 0.12 0.02 95 1016.8
20260905145041 50 320 0.0 0.0 0.00 0.12 0.02 95 1016.8
20260905144543 50 320 0.0 0.0 0.00 0.12 0.02 95 1016.7
20260905144040 50 320 0.0 0.0 0.00 0.12 0.02 95 1016.7
20260905143540 49 321 0.0 1.0 0.00 0.12 0.02 95 1016.6
20260905143040 49 320 0.0 1.0 0.00 0.12 0.02 95 1016.6
20260905142539 49 321 0.0 0.0 0.00 0.12 0.02 95 1016.6
20260905142038 49 321 0.0 0.0 0.00 0.12 0.02 95 1016.6
20260905141543 49 320 0.0 0.0 0.00 0.12 0.02 95 1016.6
20260905141037 48 320 0.0 0.0 0.00 0.12 0.02 95 1016.5
20260905140537 48 320 0.0 0.0 0.00 0.12 0.02 95 1016.5
20260905140037 48 320 0.0 0.0 0.00 0.12 0.02 95 1016.5
20260905135536 48 321 0.0 0.0 0.00 0.12 0.02 95 1016.4
20260905135035 48 320 0.0 1.0 0.00 0.12 0.02 95 1016.4
20260905134536 48 320 0.0 0.0 0.00 0.12 0.02 95 1016.3
20260905134036 48 320 0.0 0.0 0.00 0.12 0.02 95 1016.3
20260905133534 48 320 0.0 0.0 0.00 0.12 0.02 95 1016.3
20260905133034 48 320 0.0 0.0 0.00 0.12 0.02 95 1016.2
20260905132532 48 321 0.0 0.0 0.00 0.12 0.02 95 1016.2
20260905132031 49 320 0.0 0.0 0.00 0.12 0.02 95 1016.2
20260905131545 49 320 0.0 0.0 0.00 0.12 0.02 95 1016.2
20260905131030 49 320 0.0 0.0 0.00 0.12 0.02 95 1016.1
20260905130530 49 321 0.0 0.0 0.00 0.12 0.02 95 1016.1
20260905130033 49 320 0.0 0.0 0.00 0.12 0.02 95 1015.9
20260905125529 49 320 0.0 0.0 0.00 0.12 0.02 95 1015.9
20260905125030 49 320 0.0 1.0 0.00 0.12 0.02 95 1015.9
20260905124539 49 321 0.0 1.0 0.00 0.12 0.02 95 1015.8
20260905124028 49 321 0.0 0.0 0.00 0.12 0.02 95 1015.8
20260905123528 49 321 0.0 0.0 0.00 0.12 0.02 94 1015.8
20260905123027 49 320 0.0 0.0 0.00 0.12 0.02 94 1015.7
20260905122528 49 321 0.0 0.0 0.00 0.12 0.02 94 1015.6
20260905122026 49 320 0.0 0.0 0.00 0.12 0.02 94 1015.6
20260905121531 49 321 0.0 0.0 0.00 0.12 0.02 94 1015.7
20260905121025 49 321 0.0 0.0 0.00 0.12 0.02 94 1015.8
20260905120527 49 321 0.0 0.0 0.00 0.12 0.02 94 1015.9
20260905120023 49 321 0.0 0.0 0.00 0.12 0.02 94 1015.8
20260905115524 49 321 0.0 0.0 0.00 0.12 0.02 94 1015.7
20260905115023 50 320 0.0 0.0 0.00 0.12 0.02 94 1015.6
20260905114536 50 321 0.0 0.0 0.00 0.12 0.02 94 1015.7
20260905114021 50 320 0.0 0.0 0.00 0.12 0.02 94 1015.7
20260905113521 50 320 0.0 0.0 0.00 0.12 0.02 94 1015.7
20260905113020 50 320 0.0 0.0 0.00 0.12 0.02 94 1015.6
20260905112519 50 321 0.0 0.0 0.00 0.12 0.02 94 1015.6
20260905112019 50 321 0.0 0.0 0.00 0.12 0.02 94 1015.4
20260905111519 50 321 0.0 0.0 0.00 0.12 0.02 94 1015.3
20260905111020 50 320 0.0 0.0 0.00 0.12 0.02 94 1015.4
20260905110517 50 320 0.0 0.0 0.00 0.12 0.02 94 1015.3
20260905110017 51 321 0.0 0.0 0.00 0.12 0.02 93 1015.2
20260905105515 51 320 0.0 0.0 0.00 0.12 0.02 94 1015.3
20260905105015 51 321 0.0 0.0 0.00 0.12 0.02 94 1015.3
20260905104514 51 321 0.0 0.0 0.00 0.12 0.02 94 1015.4
20260905104013 51 320 0.0 0.0 0.00 0.12 0.02 94 1015.5
20260905103516 52 321 0.0 0.0 0.00 0.12 0.02 94 1015.5
20260905103024 52 321 0.0 0.0 0.00 0.12 0.02 94 1015.5
20260905102511 52 320 0.0 0.0 0.00 0.12 0.02 93 1015.6
20260905102011 52 321 0.0 0.0 0.00 0.12 0.02 93 1015.6
20260905101523 52 321 0.0 0.0 0.00 0.12 0.02 93 1015.5
20260905101009 52 320 0.0 0.0 0.00 0.12 0.02 93 1015.6
20260905100509 52 321 0.0 0.0 0.00 0.12 0.02 93 1015.3
20260905100008 52 321 0.0 1.0 0.00 0.12 0.02 93 1015.2
20260905095509 52 321 0.0 1.0 0.00 0.13 0.02 93 1015.3
20260905095009 53 321 0.0 1.0 0.00 0.13 0.02 93 1015.3
20260905094509 53 321 0.0 0.0 0.00 0.13 0.02 93 1015.2
20260905094011 53 321 0.0 0.0 0.00 0.13 0.02 93 1015.2
20260905093508 53 320 0.0 0.0 0.00 0.13 0.02 93 1015.2
20260905093008 53 321 0.0 0.0 0.00 0.13 0.02 93 1015.2
20260905092509 53 321 0.0 0.0 0.00 0.13 0.02 93 1015.1
20260905092009 53 321 0.0 0.0 0.00 0.13 0.02 93 1015.3
20260905091509 53 320 0.0 0.0 0.00 0.13 0.02 93 1015.4
20260905091007 53 320 0.0 0.0 0.00 0.13 0.02 93 1015.4
20260905090510 53 321 0.0 0.0 0.00 0.13 0.02 93 1015.4
20260905090006 53 321 0.0 0.0 0.00 0.13 0.02 93 1015.3
20260905085508 53 321 0.0 0.0 0.00 0.15 0.02 93 1015.3
20260905085005 53 320 0.0 0.0 0.00 0.15 0.02 93 1015.3
20260905084513 53 321 0.0 0.0 0.00 0.15 0.02 93 1015.0
20260905084004 53 321 0.0 0.0 0.00 0.15 0.02 93 1015.1
20260905083504 52 321 0.0 0.0 0.00 0.15 0.02 93 1015.0
20260905083004 52 321 0.0 0.0 0.00 0.15 0.02 92 1015.0
20260905082504 53 321 0.0 0.0 0.00 0.15 0.02 93 1015.1
20260905082004 53 321 0.0 0.0 0.00 0.15 0.02 93 1014.9
20260905081503 53 320 0.0 0.0 0.00 0.15 0.02 93 1015.0
20260905081002 52 320 0.0 0.0 0.00 0.15 0.02 92 1015.0
20260905080502 52 320 0.0 0.0 0.00 0.15 0.02 92 1015.0
20260905080002 52 320 0.0 0.0 0.00 0.15 0.02 92 1014.9
20260905075502 52 321 0.0 0.0 0.00 0.25 0.02 92 1015.0
20260905075002 52 321 0.0 0.0 0.00 0.25 0.02 92 1015.0
20260905074501 52 320 0.0 0.0 0.01 0.25 0.02 92 1015.1
20260905074002 52 321 0.0 1.0 0.02 0.25 0.02 91 1015.0
20260905073501 52 320 0.0 1.0 0.02 0.25 0.02 91 1015.0
20260905073003 52 321 0.0 1.0 0.02 0.25 0.02 91 1015.0
20260905072603 53 320 0.0 1.0 0.02 0.25 0.02 91 1015.0
20260905072100 53 321 0.0 0.0 0.02 0.25 0.02 91 1014.9
20260905071603 53 321 0.0 0.0 0.02 0.25 0.02 91 1014.9
20260905071101 53 320 0.0 0.0 0.02 0.25 0.02 91 1015.2
20260905070558 53 321 0.0 1.0 0.02 0.25 0.02 91 1015.0
20260905070108 53 320 0.0 1.0 0.02 0.25 0.02 91 1014.9
20260905065558 53 320 0.0 2.0 0.02 0.28 0.02 91 1014.6
20260905065057 53 321 0.0 2.0 0.02 0.28 0.02 91 1014.7
20260905064556 53 319 1.0 2.0 0.01 0.27 0.01 90 1014.7
20260905064055 52 143 0.0 1.0 0.00 0.26 0.00 90 1014.7
20260905063557 52 142 0.0 1.0 0.00 0.26 0.00 90 1015.0
20260905063056 52 137 0.0 2.0 0.00 0.26 0.00 90 1014.5
20260905062553 52 137 0.0 3.0 0.00 0.26 0.00 90 1014.0
20260905062053 53 134 1.0 3.0 0.00 0.26 0.00 90 1014.5
20260905061607 53 143 0.0 2.0 0.00 0.26 0.00 90 1013.9
20260905061054 52 77 0.0 2.0 0.00 0.26 0.00 91 1013.2
20260905060550 52 139 0.0 1.0 0.00 0.26 0.00 91 1013.6
20260905060049 52 132 0.0 0.0 0.00 0.26 0.00 90 1014.0
20260905055547 52 133 0.0 0.0 0.00 0.26 0.26 90 1014.1
20260905055047 52 133 0.0 0.0 0.00 0.26 0.26 90 1014.1
20260905054548 52 133 0.0 0.0 0.00 0.26 0.26 90 1013.9
20260905054047 52 132 0.0 0.0 0.00 0.26 0.26 90 1014.5
20260905053547 53 133 0.0 0.0 0.00 0.26 0.26 90 1014.4
20260905053051 53 132 0.0 0.0 0.00 0.26 0.26 91 1014.4
20260905052548 53 132 0.0 0.0 0.00 0.26 0.26 90 1014.4
20260905052049 53 132 0.0 0.0 0.00 0.26 0.26 91 1014.2
20260905051546 53 132 0.0 0.0 0.00 0.26 0.26 91 1014.2
20260905051045 53 133 0.0 1.0 0.00 0.26 0.26 91 1014.2
20260905050547 53 132 0.0 1.0 0.00 0.26 0.26 91 1014.1
20260905050045 53 134 0.0 1.0 0.00 0.26 0.26 91 1014.1
20260905045544 53 135 0.0 1.0 0.00 0.26 0.26 91 1014.7
20260905045046 53 135 0.0 1.0 0.00 0.26 0.26 91 1014.4
20260905044545 53 135 0.0 2.0 0.00 0.26 0.26 91 1014.3
20260905044049 53 130 0.0 2.0 0.00 0.26 0.26 91 1014.3
20260905043544 54 150 0.0 1.0 0.00 0.26 0.26 91 1013.8
20260905043046 53 323 0.0 0.0 0.00 0.26 0.26 91 1013.5
20260905042545 54 323 0.0 0.0 0.00 0.26 0.26 90 1014.0
20260905042043 54 318 0.0 0.0 0.00 0.26 0.26 90 1014.5
20260905041543 54 318 0.0 0.0 0.00 0.26 0.26 90 1014.1
20260905041042 54 318 0.0 0.0 0.00 0.26 0.26 91 1013.9
20260905040542 53 318 0.0 0.0 0.00 0.26 0.26 91 1013.9
20260905040044 53 346 0.0 0.0 0.00 0.26 0.26 90 1014.2
20260905035542 53 77 0.0 0.0 0.00 0.26 0.26 90 1014.9
20260905035042 53 19 0.0 0.0 0.00 0.26 0.26 90 1014.4
20260905034547 53 19 0.0 0.0 0.00 0.26 0.26 90 1014.1
20260905034042 53 19 0.0 0.0 0.00 0.26 0.26 89 1014.3
20260905033541 54 8 0.0 1.0 0.00 0.26 0.26 89 1014.1
20260905033042 54 8 0.0 1.0 0.00 0.26 0.26 89 1014.0
20260905032541 54 323 0.0 0.0 0.00 0.26 0.26 89 1014.1
20260905032044 54 323 0.0 0.0 0.00 0.26 0.26 88 1013.9
20260905031541 54 323 0.0 0.0 0.00 0.26 0.26 87 1014.1
20260905031040 54 323 0.0 0.0 0.00 0.26 0.26 87 1014.1
20260905030540 54 323 0.0 0.0 0.00 0.26 0.26 87 1013.9
20260905030140 55 323 0.0 3.0 0.00 0.26 0.26 86 1014.0
20260905025539 55 323 0.0 3.0 0.00 0.26 0.26 86 1013.7
20260905025040 54 330 0.0 2.0 0.00 0.26 0.26 87 1013.7
20260905024556 54 330 0.0 0.0 0.00 0.26 0.26 88 1013.7
20260905024042 54 330 0.0 0.0 0.00 0.26 0.26 88 1014.0
20260905023541 55 330 0.0 0.0 0.00 0.26 0.26 87 1014.0
20260905023139 55 330 0.0 0.0 0.00 0.26 0.26 87 1014.0
20260905022537 55 330 0.0 0.0 0.00 0.26 0.26 86 1014.0
20260905022038 55 330 0.0 0.0 0.00 0.26 0.26 85 1014.0
20260905021542 55 330 0.0 0.0 0.00 0.26 0.26 85 1014.0
20260905021037 55 330 0.0 0.0 0.00 0.26 0.26 85 1014.0
20260905020537 56 330 0.0 0.0 0.00 0.26 0.26 84 1014.0
20260905020044 56 330 0.0 0.0 0.00 0.26 0.26 84 1014.0
20260905015537 56 330 0.0 0.0 0.00 0.26 0.26 83 1014.0
20260905015037 56 330 0.0 1.0 0.00 0.26 0.26 83 1014.1
20260905014538 56 330 0.0 1.0 0.00 0.26 0.26 82 1013.9
20260905014036 56 330 0.0 1.0 0.00 0.26 0.26 82 1013.9
20260905013537 56 138 0.0 1.0 0.00 0.26 0.26 83 1014.1
20260905013036 56 138 0.0 2.0 0.00 0.26 0.26 82 1014.1
20260905012536 56 138 0.0 2.0 0.00 0.26 0.26 82 1014.4
20260905012036 56 134 0.0 2.0 0.00 0.26 0.26 82 1014.2
20260905011539 56 305 0.0 0.0 0.00 0.26 0.26 81 1014.4
20260905011037 56 305 0.0 0.0 0.00 0.26 0.26 81 1014.5
20260905010533 56 321 0.0 0.0 0.00 0.26 0.26 80 1014.5
20260905010033 56 322 0.0 2.0 0.00 0.26 0.26 79 1014.4
20260905005533 56 323 0.0 2.0 0.00 0.26 0.26 79 1014.6
20260905005033 56 323 0.0 2.0 0.00 0.26 0.26 79 1015.0
20260905004533 56 323 0.0 4.0 0.00 0.26 0.26 80 1014.9
20260905004032 56 323 1.0 4.0 0.00 0.26 0.26 79 1015.0
20260905003532 56 326 1.0 4.0 0.00 0.26 0.26 79 1014.8
20260905003032 56 330 1.0 4.0 0.00 0.26 0.26 79 1014.8
20260905002530 56 224 0.0 5.0 0.00 0.26 0.26 80 1014.8
20260905002030 56 321 0.0 5.0 0.00 0.26 0.26 79 1014.8
20260905001529 56 328 1.0 6.0 0.00 0.26 0.26 81 1014.8
20260905001028 55 314 2.0 6.0 0.00 0.26 0.26 83 1014.7
20260905000529 55 329 1.0 4.0 0.00 0.26 0.26 85 1014.5
20260905000026 55 314 0.0 3.0 0.00 0.26 0.26 86 1014.5
20260904235527 55 309 0.0 5.0 0.00 0.26 0.26 86 1014.5
20260904235029 54 301 1.0 6.0 0.00 0.26 0.26 86 1014.5
20260904234536 54 323 2.0 6.0 0.00 0.26 0.26 86 1014.6
20260904234025 54 315 2.0 6.0 0.00 0.26 0.26 86 1014.6
20260904233522 54 323 2.0 7.0 0.00 0.26 0.26 87 1014.6
20260904233021 54 314 3.0 7.0 0.00 0.26 0.26 87 1014.6
20260904232521 53 322 2.0 4.0 0.00 0.26 0.26 88 1014.5
20260904232020 53 325 0.0 4.0 0.00 0.26 0.26 89 1014.8
20260904231519 53 314 2.0 5.0 0.00 0.26 0.26 88 1014.7
20260904231021 53 316 1.0 5.0 0.00 0.26 0.26 89 1014.7
20260904230522 52 325 1.0 5.0 0.00 0.26 0.26 89 1014.7
20260904230023 52 321 1.0 5.0 0.00 0.26 0.26 89 1014.7
20260904225523 52 327 3.0 5.0 0.00 0.26 0.26 90 1014.9
20260904225020 52 322 2.0 5.0 0.00 0.26 0.26 89 1014.9
20260904224535 52 325 2.0 5.0 0.02 0.26 0.26 89 1015.0
20260904224018 52 321 1.0 3.0 0.03 0.26 0.26 90 1014.8
20260904223518 52 325 0.0 2.0 0.04 0.26 0.26 90 1015.0
20260904223019 52 330 1.0 2.0 0.05 0.26 0.26 90 1015.0
20260904222516 52 235 0.0 1.0 0.05 0.26 0.26 90 1015.2
20260904222017 52 143 0.0 1.0 0.05 0.26 0.26 90 1015.0
20260904221516 52 143 0.0 1.0 0.05 0.26 0.26 90 1015.1
20260904221016 52 143 0.0 1.0 0.05 0.26 0.26 90 1015.2
20260904220516 52 151 0.0 1.0 0.05 0.26 0.26 90 1015.1
20260904220016 52 142 0.0 1.0 0.05 0.26 0.26 90 1015.2
20260904215517 52 141 0.0 1.0 0.05 0.26 0.26 89 1015.3
20260904215015 52 129 0.0 1.0 0.05 0.26 0.26 89 1015.3
20260904214534 52 127 0.0 0.0 0.03 0.24 0.24 88 1015.4
20260904214019 52 200 0.0 0.0 0.02 0.23 0.23 86 1015.7
20260904213515 52 181 0.0 0.0 0.01 0.22 0.22 86 1015.8
20260904213014 52 181 0.0 3.0 0.00 0.21 0.21 86 1015.8
20260904212513 52 183 0.0 3.0 0.00 0.21 0.21 86 1015.9
20260904212017 52 333 0.0 2.0 0.00 0.21 0.21 85 1015.8
20260904211514 52 150 0.0 4.0 0.00 0.21 0.21 85 1015.6
20260904211011 52 323 1.0 4.0 0.00 0.21 0.21 84 1015.5
20260904210511 52 354 0.0 3.0 0.00 0.21 0.21 84 1015.5
20260904210011 52 319 1.0 4.0 0.00 0.21 0.21 84 1015.4
20260904205511 52 328 0.0 4.0 0.00 0.21 0.21 84 1015.3
20260904205012 52 328 0.0 4.0 0.00 0.21 0.21 85 1015.2
20260904204510 52 326 0.0 4.0 0.00 0.21 0.21 86 1015.3
20260904204009 52 328 1.0 4.0 0.01 0.21 0.21 86 1015.2
20260904203508 53 330 0.0 2.0 0.01 0.21 0.21 86 1015.1
20260904203007 52 148 0.0 4.0 0.01 0.21 0.21 86 1014.9
20260904202507 52 333 0.0 4.0 0.01 0.21 0.21 85 1014.8
20260904202009 53 333 1.0 4.0 0.02 0.21 0.21 86 1014.8
20260904201505 53 346 0.0 2.0 0.02 0.21 0.21 87 1014.8
20260904201005 53 164 0.0 1.0 0.02 0.21 0.21 87 1014.7
20260904200503 53 165 0.0 1.0 0.02 0.21 0.21 86 1014.7
20260904200004 53 326 0.0 1.0 0.03 0.21 0.21 86 1014.7
20260904195502 52 326 0.0 1.0 0.04 0.21 0.21 85 1014.8